Regional Weather Roundup
Issued by NWS

Home | Current Version | Previous Version | Graphics & Text | Print | Product List | Glossary On
Versions: 1 2 3 4 5 6 7 8 9 10 11 12 13 14 15 16 17 18 19 20 21 22 23 24 25 26 27 28 29 30 31 32 33 34 35 36 37 38 39 40 41 42 43 44 45 46 47 48 49 50
000
ASUS43 KFSD 211710
RWRSD

WEATHER ROUNDUP FOR SOUTH DAKOTA
NATIONAL WEATHER SERVICE SIOUX FALLS SD
1100 AM CST SUN DEC 21 2014

NOTE: "FAIR" INDICATES FEW OR NO CLOUDS BELOW 12,000 FEET WITH NO
SIGNIFICANT WEATHER AND/OR OBSTRUCTIONS TO VISIBILITY.


SDZ001>005-009-010-012>017-211800-
NORTHWEST AND NORTH CENTRAL SOUTH DAKOTA

CITY           SKY/WX    TMP DP  RH WIND       PRES   REMARKS
BUFFALO          N/A     33  27  78 SE7       29.38F WCI  27
FAITH            N/A     32  27  81 S5        29.47F WCI  27
MOBRIDGE       SUNNY     33  27  78 SE13      29.52F WCI  24
$$

SDZ012>016-024>037-041>051-057-063-072>074-211800-
SOUTHWEST AND SOUTH CENTRAL SOUTH DAKOTA

CITY           SKY/WX    TMP DP  RH WIND       PRES   REMARKS
RAPID CTY ARPT SUNNY     32  27  81 SW6       29.47F WCI  26
PIERRE         SUNNY     28  25  88 SE8       29.55F WCI  20
CUSTER         CLOUDY    35  26  69 W12G21    29.47F WCI  27
ELLSWORTH AFB  SUNNY     43  30  60 SW7       29.46S
PHILIP         MOSUNNY   31  26  82 SE3       29.51F
PINE RIDGE     MOSUNNY   38  26  62 S12       29.52F
SPEARFISH      FAIR      41  19  42 CALM      29.46F
WINNER         FAIR      39  27  62 SW14      29.57F
$$

SDZ004>011-016>023-039-040-211800-
NORTHEAST SOUTH DAKOTA

CITY           SKY/WX    TMP DP  RH WIND       PRES   REMARKS
ABERDEEN       CLOUDY    32  30  92 S15       29.65F FOG     WCI  22
WATERTOWN      FOG       31  30  96 S14       29.66F VSB 1/2 WCI  21
SISSETON         N/A     32  30  92 S15       29.68F WCI  22
$$

SDZ017-020-022-023-036>040-048>070-211800-
SOUTHEAST SOUTH DAKOTA

CITY           SKY/WX    TMP DP  RH WIND       PRES   REMARKS
SIOUX FALLS    FOG       33  33 100 S17       29.73F VSB 1/2 WCI  22
HURON          CLOUDY    31  30  96 SE12      29.66F FOG     WCI  22
CHAMBERLAIN    SUNNY     29  25  84 E5        29.59F WCI  24
MITCHELL       CLOUDY    32  31  96 S16       29.67F FOG     WCI  21
YANKTON        CLOUDY    34  30  86 E7        29.73F WCI  28
$$

ABBREVIATIONS USED IN REMARKS
   TC - TEMPERATURE IN CELSIUS
  WCI - WIND CHILL INDEX
   HX - HEAT INDEX
  VSB - VISIBILITY




USA.gov is the U.S. government's official web portal to all federal, state and local government web resources and services.